Wind_Speed
5 5 5 6 6 6 5 5 5 4 4 4 3 2 2 2 2 3 4 4 4 4 4 5 6 6 6 6 6 7 6 6 6 6 6 6 6 6 6 5 5 5 5
6 5 5 5 5 5 5 5 5 5 5 5 4 4 4 4 4 4 5 5 5 5 6 7 8 8 8 7 8 8 7 7 7 7 7 7 7 7 7 6 6 7 8
5 6 5 5 5 5 5 5 5 5 5 5 5 5 5 6 6 6 6 6 6 7 7 8 9 9 9 9 9 9 9 8 9 8 9 9 8 8 9 8 8 9 10
4 5 5 5 5 5 6 6 6 6 6 6 7 7 7 7 7 7 6 7 7 7 8 9 10 10 9 9 10 10 9 9 9 9 10 10 10 10 11 10 9 10 11
4 4 5 5 5 5 6 7 7 7 7 7 7 8 8 8 8 7 7 7 8 8 9 9 10 10 10 10 10 11 10 10 9 9 10 11 11 11 11 11 10 10 11
2 3 4 4 5 5 5 6 7 7 7 7 8 8 8 8 8 8 8 8 8 8 8 9 9 10 10 10 10 10 11 10 10 10 11 12 12 12 12 12 11 11 12
2 2 2 3 3 3 3 4 5 6 6 6 7 7 7 7 7 7 8 7 7 8 8 9 9 9 9 10 11 11 11 10 10 11 12 12 13 13 13 12 12 13 13
2 2 2 3 4 4 4 4 4 5 6 6 6 6 7 7 7 7 8 8 9 8 9 10 10 10 10 10 10 11 11 11 11 12 13 13 13 13 13 13 14 14 15
4 4 4 4 4 5 5 5 5 6 7 8 8 8 9 9 9 8 9 9 8 8 9 10 11 11 11 11 12 12 13 13 13 13 14 14 13 14 14 15 15 16 16
5 5 5 6 6 6 7 7 7 7 8 9 9 9 10 10 10 10 10 11 11 11 11 12 12 12 12 13 13 13 14 14 14 14 14 14 14 15 15 15 16 15 16
7 7 7 7 8 8 8 8 8 8 8 9 10 10 11 11 11 11 11 12 12 13 13 12 13 13 14 14 15 15 15 15 15 14 15 15 16 16 16 16 17 17 17
8 8 8 8 9 9 9 9 9 9 9 10 10 11 11 12 12 13 13 14 14 14 14 14 14 14 14 15 15 16 17 17 16 16 17 17 17 16 17 17 18 18 19
10 10 10 10 10 10 10 10 11 11 11 11 11 11 12 12 13 14 14 15 15 14 15 15 16 16 16 17 17 17 18 18 18 18 18 18 18 18 18 18 19 20 20
12 12 12 12 11 11 12 12 12 13 12 13 13 13 13 14 14 14 14 14 15 15 16 17 18 18 19 19 18 18 19 20 20 20 19 19 19 19 19 19 20 21 22
14 14 14 14 14 13 13 13 14 14 15 15 15 15 15 15 16 16 16 16 16 17 17 19 20 20 21 21 21 21 21 21 21 21 21 20 20 20 20 20 21 22 22
16 16 16 16 16 16 16 16 16 16 17 17 17 17 17 17 17 18 18 19 19 19 19 20 21 22 23 23 23 23 23 23 23 23 23 22 22 22 22 22 23 23 23
18 18 17 17 17 18 18 18 18 18 18 19 19 19 20 20 20 20 20 20 21 21 22 22 23 24 24 25 25 25 25 25 25 25 25 25 25 24 24 24 24 24 24
20 19 19 19 19 20 20 20 20 20 20 20 21 21 21 21 21 22 22 22 23 23 24 24 25 25 25 25 26 26 26 26 26 26 27 27 26 26 26 26 26 26 25
22 21 21 21 21 21 22 22 22 22 23 22 23 23 23 23 23 24 24 24 25 26 26 26 26 27 27 27 27 28 27 27 26 26 26 27 27 27 27 27 27 26 25
24 23 23 23 23 24 24 24 24 25 25 25 25 25 25 25 26 25 26 27 27 27 27 27 28 29 29 29 29 29 28 28 28 28 27 27 27 27 27 27 26 26 26
26 26 25 25 25 25 25 26 26 26 26 25 26 26 26 26 27 27 27 28 28 28 28 29 29 29 29 30 30 30 29 29 28 28 28 28 28 28 27 27 27 26 26
28 28 27 27 27 28 27 28 28 28 27 28 27 27 27 27 28 28 29 30 30 29 29 30 30 30 30 30 29 29 29 29 29 28 28 28 28 28 27 27 27 27 27
29 30 29 29 29 30 29 29 29 29 28 29 29 28 28 28 29 29 30 30 31 30 30 30 30 30 30 30 30 29 29 29 29 28 29 29 28 28 27 27 27 27 28
30 30 30 30 30 30 31 30 30 30 30 29 29 29 29 29 29 29 29 29 29 29 30 31 32 31 31 31 31 30 30 29 29 29 29 29 28 28 27 28 28 28 28
31 31 31 31 31 30 31 31 31 31 31 31 30 30 30 30 30 30 30 30 31 31 32 32 32 32 31 31 31 30 29 29 29 29 28 28 28 28 27 28 28 28 28
32 32 31 31 31 31 32 32 32 32 31 30 30 31 31 31 32 32 32 32 32 33 33 33 32 31 30 29 30 30 30 30 29 29 29 29 28 28 29 29 28 28 27
Wind_Direction
182 184 184 184 185 185 185 189 194 198 207 212 215 219 240 253 264 270 260 242 249 265 278 285 284 282 285 291 289 282 278 272 278 279 279 277 278 285 282 270 268 268 276
194 193 193 191 194 195 199 205 211 216 229 232 239 245 260 261 264 268 261 256 256 270 280 281 283 281 282 286 288 288 284 282 281 284 280 279 279 279 276 271 270 271 274
202 200 199 203 206 208 214 220 221 233 242 249 256 257 265 267 268 271 266 268 267 272 280 282 283 285 285 284 287 286 284 280 282 281 279 281 281 279 275 270 272 272 270
207 209 207 213 220 227 231 229 229 237 241 249 259 262 265 268 272 273 272 274 276 276 279 284 281 282 286 289 288 285 284 284 284 280 279 280 277 280 280 271 273 274 273
197 211 213 221 232 237 238 239 238 240 240 248 258 263 269 273 275 276 277 281 284 281 281 284 283 283 283 287 288 286 287 287 291 287 282 281 277 283 283 276 272 274 276
186 206 218 229 239 249 252 246 246 247 248 254 259 265 271 278 275 277 282 283 285 285 286 291 289 286 285 288 289 288 290 291 291 291 289 285 280 283 282 275 273 275 275
206 221 222 228 232 241 248 254 254 252 254 257 265 268 274 280 282 280 279 278 282 287 288 292 296 291 289 287 286 285 289 291 294 293 291 289 284 280 279 277 275 276 276
247 253 245 246 246 250 257 261 264 265 263 264 269 269 268 276 282 276 275 280 285 288 291 292 292 294 290 290 288 287 288 290 290 289 290 290 287 284 282 283 279 277 276
257 258 258 266 269 264 265 266 269 273 273 272 272 273 272 276 279 279 278 281 285 289 292 293 292 292 294 292 290 290 289 288 289 287 287 290 290 287 284 284 283 279 277
266 266 264 267 270 267 270 272 271 275 278 277 277 279 278 280 281 282 281 282 285 288 292 294 293 293 294 295 292 290 290 289 286 286 288 289 289 288 285 282 284 283 280
273 274 272 269 272 273 274 275 274 277 279 280 279 278 279 280 282 283 281 284 288 289 289 291 292 292 295 298 296 294 293 292 290 289 289 288 286 286 284 283 284 282 279
278 277 276 275 278 278 278 277 275 278 282 283 283 281 282 285 287 285 283 284 289 291 289 290 291 293 295 296 298 298 296 293 292 290 289 290 289 288 284 283 282 280 279
275 277 280 280 282 278 277 278 277 277 280 283 285 284 285 288 290 289 285 283 287 289 289 292 293 293 294 294 294 296 296 293 292 291 290 290 289 287 287 287 284 280 280
273 278 280 280 280 280 281 283 280 276 279 281 282 283 284 287 290 291 288 287 288 289 289 290 292 292 292 293 293 294 295 293 292 291 290 290 290 287 286 287 289 283 280
273 277 282 279 279 281 283 285 285 277 277 280 280 282 283 284 285 287 288 288 288 288 288 289 291 293 291 291 292 292 293 292 292 291 290 290 290 288 287 287 287 285 283
274 276 280 279 277 279 283 286 286 280 278 279 280 280 282 283 285 287 287 287 289 290 290 290 290 291 291 290 290 291 291 290 289 289 288 287 289 290 287 287 286 284 284
274 276 277 281 279 280 283 284 284 281 279 278 280 280 280 281 283 284 285 286 287 288 289 290 290 290 289 289 288 287 288 287 286 287 286 286 286 288 286 285 285 285 284
272 274 277 278 279 278 280 282 283 280 279 279 279 280 280 281 282 282 283 284 286 287 289 289 290 289 290 289 288 287 287 287 286 286 285 284 285 286 286 285 283 282 283
270 272 275 276 276 278 280 280 282 279 279 278 279 279 280 280 281 282 283 284 285 287 288 289 289 289 289 289 288 288 287 286 286 287 286 285 286 285 285 285 282 281 282
268 270 273 274 275 277 278 279 280 279 279 278 279 279 279 278 280 282 283 284 285 287 288 289 289 289 288 288 287 288 287 286 286 286 286 286 287 286 286 285 284 282 281
267 268 270 272 274 276 277 278 278 278 279 279 278 277 277 277 279 281 282 282 283 285 286 287 287 288 289 288 286 285 285 285 285 286 285 285 286 286 285 284 284 282 281
267 268 269 271 273 275 276 277 277 277 277 277 276 276 274 275 279 280 282 282 283 283 284 286 286 286 288 287 286 286 285 284 285 286 285 285 285 284 284 283 282 281 281
269 269 270 272 274 275 276 275 274 275 276 276 276 275 274 276 278 280 282 283 281 282 284 285 286 286 287 286 285 285 285 284 285 285 285 285 285 284 283 283 284 283 283
270 271 271 271 274 276 277 277 276 275 275 275 275 276 277 278 279 281 282 282 281 282 284 284 285 286 285 284 284 284 283 283 283 284 284 285 285 284 282 283 283 284 283
270 271 271 272 273 275 276 277 277 276 276 275 274 275 277 278 278 281 283 282 281 282 283 284 284 286 285 284 283 282 282 284 285 285 285 285 284 284 283 283 284 284 284
270 270 271 272 272 273 275 276 278 278 277 276 276 277 277 277 278 280 281 281 281 282 282 283 284 284 284 283 282 282 283 284 285 285 285 285 283 282 282 283 284 284 284
Height
5903 5903 5904 5904 5905 5905 5906 5906 5906 5906 5907 5907 5907 5906 5907 5907 5907 5906 5906 5906 5906 5906 5905 5905 5904 5904 5903 5903 5902 5901 5901 5900 5900 5900 5899 5899 5899 5898 5898 5898 5898 5897 5897
5903 5903 5904 5904 5905 5905 5905 5906 5906 5906 5906 5906 5906 5906 5906 5906 5906 5906 5905 5905 5904 5904 5904 5904 5903 5903 5902 5901 5901 5900 5899 5899 5898 5898 5898 5897 5897 5897 5896 5896 5896 5896 5896
5903 5903 5904 5904 5905 5905 5905 5905 5905 5905 5906 5906 5906 5905 5906 5905 5905 5904 5904 5904 5904 5903 5903 5902 5902 5901 5900 5900 5899 5898 5898 5897 5897 5897 5896 5896 5895 5895 5895 5895 5894 5894 5894
5903 5903 5903 5904 5904 5904 5904 5905 5905 5905 5905 5905 5905 5904 5904 5904 5903 5903 5903 5903 5902 5901 5901 5901 5900 5899 5898 5898 5897 5896 5896 5895 5895 5894 5894 5894 5893 5893 5893 5892 5892 5892 5892
5902 5902 5903 5903 5903 5904 5904 5904 5904 5904 5904 5904 5903 5903 5903 5902 5902 5902 5902 5901 5901 5900 5899 5899 5898 5897 5896 5896 5895 5894 5893 5893 5893 5892 5892 5892 5891 5890 5890 5889 5889 5889 5889
5902 5903 5903 5903 5903 5903 5903 5903 5903 5903 5903 5903 5902 5902 5902 5901 5901 5900 5900 5900 5899 5899 5898 5897 5896 5895 5894 5894 5893 5892 5892 5891 5891 5890 5889 5889 5888 5888 5887 5887 5887 5886 5886
5903 5903 5903 5902 5902 5902 5902 5902 5902 5901 5901 5901 5901 5901 5900 5900 5899 5899 5898 5898 5898 5897 5896 5896 5894 5893 5892 5892 5891 5890 5890 5889 5888 5888 5887 5886 5886 5885 5884 5884 5884 5883 5883
5902 5902 5902 5902 5902 5902 5901 5901 5901 5900 5900 5900 5900 5899 5899 5899 5898 5898 5897 5896 5896 5895 5895 5894 5893 5892 5891 5890 5889 5888 5887 5887 5886 5885 5884 5883 5883 5882 5881 5881 5880 5880 5879
5902 5902 5901 5901 5901 5901 5901 5900 5900 5899 5899 5898 5898 5898 5898 5897 5897 5896 5895 5895 5894 5894 5893 5892 5891 5890 5889 5888 5887 5886 5885 5884 5883 5882 5881 5880 5879 5879 5878 5878 5877 5876 5875
5901 5901 5900 5900 5900 5900 5900 5899 5898 5898 5898 5897 5896 5896 5896 5895 5894 5894 5893 5893 5892 5891 5891 5890 5889 5888 5887 5885 5884 5883 5882 5881 5880 5879 5878 5877 5876 5875 5874 5873 5873 5872 5872
5900 5899 5899 5899 5898 5898 5898 5897 5897 5896 5896 5895 5894 5894 5893 5893 5892 5892 5891 5890 5889 5889 5888 5887 5886 5885 5884 5882 5881 5880 5879 5878 5876 5875 5875 5874 5873 5871 5870 5869 5869 5868 5867
5898 5898 5897 5897 5896 5896 5896 5895 5895 5894 5894 5893 5892 5892 5891 5890 5889 5889 5888 5888 5886 5885 5885 5884 5883 5882 5881 5879 5878 5877 5875 5874 5873 5872 5871 5870 5868 5867 5866 5865 5864 5863 5862
5896 5895 5895 5895 5894 5894 5893 5893 5892 5892 5891 5891 5890 5889 5888 5887 5887 5886 5885 5885 5884 5882 5881 5880 5879 5878 5877 5876 5874 5873 5872 5870 5869 5867 5866 5865 5864 5863 5862 5860 5859 5858 5857
5893 5893 5892 5892 5892 5891 5890 5890 5889 5889 5888 5888 5887 5886 5885 5884 5884 5883 5882 5881 5880 5879 5878 5877 5875 5874 5873 5872 5870 5869 5868 5866 5865 5863 5862 5860 5859 5858 5857 5855 5854 5853 5852
5890 5889 5889 5889 5888 5888 5887 5886 5885 5885 5884 5884 5883 5883 5882 5881 5880 5879 5878 5877 5877 5875 5874 5873 5871 5869 5868 5866 5865 5864 5863 5861 5860 5858 5857 5856 5854 5852 5851 5850 5848 5847 5846
5886 5886 5885 5884 5884 5884 5883 5882 5881 5881 5880 5880 5879 5879 5878 5877 5876 5875 5873 5872 5871 5870 5869 5868 5866 5864 5862 5861 5860 5858 5857 5856 5854 5853 5852 5850 5849 5847 5845 5844 5843 5841 5840
5882 5881 5881 5880 5879 5879 5878 5878 5877 5877 5876 5875 5875 5874 5873 5872 5871 5870 5869 5867 5866 5865 5863 5862 5860 5859 5857 5855 5853 5852 5851 5849 5848 5847 5845 5844 5843 5841 5839 5838 5836 5835 5833
5877 5877 5876 5875 5875 5874 5873 5873 5872 5871 5870 5870 5869 5869 5868 5866 5865 5864 5863 5862 5860 5859 5857 5856 5854 5852 5850 5848 5847 5845 5844 5842 5841 5840 5838 5837 5836 5834 5833 5831 5830 5828 5827
5872 5871 5870 5870 5869 5868 5867 5867 5866 5865 5864 5864 5863 5862 5861 5860 5859 5858 5857 5855 5854 5852 5850 5849 5847 5845 5843 5841 5839 5838 5837 5835 5833 5832 5831 5830 5828 5827 5825 5824 5822 5821 5820
5865 5865 5864 5863 5863 5862 5861 5860 5859 5858 5858 5857 5856 5855 5855 5854 5853 5851 5850 5848 5847 5845 5843 5842 5840 5838 5836 5834 5832 5830 5829 5828 5826 5825 5823 5822 5820 5819 5817 5816 5815 5814 5812
5858 5858 5857 5857 5856 5855 5854 5853 5852 5851 5850 5849 5849 5848 5847 5846 5845 5844 5842 5841 5839 5837 5836 5834 5832 5830 5828 5826 5824 5822 5821 5820 5818 5817 5816 5814 5812 5811 5810 5808 5807 5806 5805
5851 5850 5850 5849 5848 5847 5846 5845 5844 5843 5842 5842 5841 5840 5839 5839 5838 5837 5835 5832 5831 5829 5828 5826 5824 5822 5820 5818 5816 5815 5813 5812 5811 5810 5808 5806 5805 5803 5802 5801 5800 5798 5797
5843 5842 5842 5842 5841 5840 5839 5837 5836 5835 5834 5834 5833 5832 5831 5831 5830 5828 5826 5824 5822 5821 5819 5818 5816 5814 5812 5810 5809 5807 5806 5804 5802 5801 5800 5798 5797 5795 5794 5793 5792 5790 5789
5834 5834 5834 5833 5833 5832 5830 5829 5828 5827 5826 5825 5825 5824 5823 5822 5821 5820 5818 5816 5814 5813 5811 5809 5808 5806 5804 5802 5800 5799 5797 5796 5794 5793 5791 5790 5789 5787 5786 5785 5783 5782 5781
5824 5824 5825 5824 5824 5823 5822 5821 5820 5819 5818 5817 5816 5815 5815 5814 5813 5811 5810 5808 5806 5805 5803 5800 5799 5797 5795 5793 5792 5791 5789 5788 5787 5785 5783 5782 5780 5779 5778 5776 5775 5774 5772
5815 5815 5815 5815 5815 5815 5814 5812 5811 5810 5810 5809 5808 5807 5806 5805 5804 5802 5800 5799 5797 5796 5794 5792 5790 5788 5786 5785 5784 5782 5781 5780 5778 5777 5775 5774 5772 5771 5769 5768 5766 5765 5764